Siemreap, Cambodia

7:53 AM ICT on February 24, 2017 (GMT +0700)
Siem Reap

Weather History for VDSR - July, 2013

Change the Weather History Date:

Tuesday, July 9, 2013

  Actual Average Record
Temperature  
Mean Temperature 82 °F -  
Max Temperature 86 °F - - ()
Min Temperature 78 °F - - ()
Cooling Degree Days 17    
Growing Degree Days 32 (Base 50)    
Moisture  
Dew Point 72 °F    
Average Humidity 71    
Maximum Humidity 83    
Minimum Humidity 62    
Precipitation  
Precipitation 0.00 in - - ()
Sea Level Pressure  
Sea Level Pressure 29.74 in    
Wind  
Wind Speed 4 mph ()    
Max Wind Speed 8 mph    
Max Gust Speed -    
Visibility 6.0 miles    
Events      
T = Trace of Precipitation, MM = Missing Value Source: Averaged Metar Reports

Daily Weather History Graph

Daily Weather History Graph

Search for Another Location

Airport or City:

Trip Planner

Search our weather history database for the weather conditions in past years. The results will help you decide how hot, cold, wet, or windy it might be!

Date:

Astronomy

Jul. 09, 2013 Rise Set
Actual Time 5:43 AM ICT 6:35 PM ICT
Civil Twilight 5:20 AM ICT 6:59 PM ICT
Nautical Twilight 4:52 AM ICT 7:26 PM ICT
Astronomical Twilight 4:25 AM ICT 7:54 PM ICT
Moon 6:21 AM ICT (7/9) 7:15 PM ICT (7/9)
Length of Visible Light 13h 38m
Length of Day
12h 52m
New Moon, 1% of the Moon is Illuminated
Jul 9
New Moon
Jul 16
First Quarter
Jul 23
Full
Jul 30
Last Quarter
Aug 7
New

Hourly Weather History & Observations

Time (ICT) Temp. Heat Index Dew Point Humidity Pressure Visibility Wind Dir Wind Speed Gust Speed Precip Events Conditions
12:00 AM 78.8 °F - 73.4 °F 83% 29.80 in 5.6 mi Calm Calm - N/A   Mostly Cloudy
12:30 AM 78.8 °F - 73.4 °F 83% 29.80 in 5.6 mi Calm Calm - N/A   Mostly Cloudy
7:00 AM 78.8 °F - 71.6 °F 78% 29.77 in 5.6 mi WSW 5.8 mph - N/A   Mostly Cloudy
7:30 AM 78.8 °F - 71.6 °F 78% 29.77 in 5.6 mi SW 5.8 mph - N/A   Mostly Cloudy
8:00 AM 80.6 °F 85.4 °F 73.4 °F 79% 29.80 in 6.2 mi SW 4.6 mph - N/A   Mostly Cloudy
8:30 AM 80.6 °F 85.4 °F 73.4 °F 79% 29.80 in 6.2 mi SW 4.6 mph - N/A   Mostly Cloudy
9:00 AM 82.4 °F 87.2 °F 71.6 °F 70% 29.77 in 6.2 mi SW 4.6 mph - N/A   Mostly Cloudy
9:30 AM 84.2 °F 89.6 °F 71.6 °F 66% 29.77 in 6.2 mi SW 4.6 mph - N/A   Mostly Cloudy
10:00 AM 84.2 °F 89.6 °F 71.6 °F 66% 29.77 in 6.2 mi South 4.6 mph - N/A   Mostly Cloudy
10:30 AM 84.2 °F 89.6 °F 71.6 °F 66% 29.77 in 6.2 mi South 4.6 mph - N/A   Mostly Cloudy
11:00 AM 86.0 °F 91.8 °F 71.6 °F 62% 29.77 in 6.2 mi South 5.8 mph - N/A   Mostly Cloudy
11:30 AM 86.0 °F 91.8 °F 71.6 °F 62% 29.77 in 6.2 mi South 5.8 mph - N/A   Mostly Cloudy
12:00 PM 86.0 °F 91.8 °F 71.6 °F 62% 29.77 in 6.2 mi Calm Calm - N/A   Mostly Cloudy
12:30 PM 86.0 °F 93.4 °F 73.4 °F 66% 29.74 in 6.2 mi SW 5.8 mph - N/A   Mostly Cloudy
1:00 PM 86.0 °F 91.8 °F 71.6 °F 62% 29.74 in 6.2 mi WSW 8.1 mph - N/A   Mostly Cloudy
1:30 PM 86.0 °F 91.8 °F 71.6 °F 62% 29.74 in 6.2 mi WSW 5.8 mph - N/A   Mostly Cloudy
2:00 PM 86.0 °F 91.8 °F 71.6 °F 62% 29.71 in 6.2 mi WSW 5.8 mph - N/A   Mostly Cloudy
2:30 PM 86.0 °F 91.8 °F 71.6 °F 62% 29.71 in 6.2 mi WSW 5.8 mph - N/A   Mostly Cloudy
3:00 PM 86.0 °F 93.4 °F 73.4 °F 66% 29.71 in 6.2 mi WSW 8.1 mph - N/A   Mostly Cloudy
3:30 PM 84.2 °F 90.9 °F 73.4 °F 70% 29.68 in 6.2 mi WSW 5.8 mph - N/A   Mostly Cloudy
4:00 PM 84.2 °F 90.9 °F 73.4 °F 70% 29.68 in 6.2 mi WSW 5.8 mph - N/A   Mostly Cloudy
4:30 PM 84.2 °F 88.4 °F 69.8 °F 62% 29.68 in 6.2 mi SW 5.8 mph - N/A   Mostly Cloudy
5:00 PM 84.2 °F 90.9 °F 73.4 °F 70% 29.68 in 6.2 mi WSW 4.6 mph - N/A   Mostly Cloudy
5:30 PM 82.4 °F 88.2 °F 73.4 °F 74% 29.68 in 6.2 mi WSW 4.6 mph - N/A   Mostly Cloudy
6:00 PM 82.4 °F 88.2 °F 73.4 °F 74% 29.68 in 6.2 mi WSW 4.6 mph - N/A   Scattered Clouds
6:30 PM 80.6 °F 84.6 °F 71.6 °F 74% 29.68 in 6.2 mi WSW 4.6 mph - N/A   Scattered Clouds
7:00 PM 80.6 °F 85.4 °F 73.4 °F 79% 29.71 in 6.2 mi WSW 1.2 mph - N/A   Scattered Clouds
7:30 PM 80.6 °F 85.4 °F 73.4 °F 79% 29.71 in 5.6 mi WSW 3.5 mph - N/A   Scattered Clouds
8:00 PM 80.6 °F 84.6 °F 71.6 °F 74% 29.74 in 5.6 mi SSW 1.2 mph - N/A   Scattered Clouds
8:30 PM 80.6 °F 84.6 °F 71.6 °F 74% 29.74 in 5.6 mi WSW 3.5 mph - N/A   Scattered Clouds
9:00 PM 80.6 °F 84.6 °F 71.6 °F 74% 29.74 in 5.6 mi WSW 1.2 mph - N/A   Scattered Clouds
9:30 PM 78.8 °F - 71.6 °F 78% 29.74 in 5.6 mi South 1.2 mph - N/A   Scattered Clouds